| time (UTC) | temp C | wind direction | speed KPH | gust KPH | rain 1hr cm | rain 24hr cm | rain mn cm | humidity % | barometer mb |
| 20260506070317 | 9 | 68 | 12.9 | 17.7 | 0.00 | 0.00 | 0.00 | 68 | 1011.4 |
| 20260506062316 | 9 | 45 | 8.0 | 14.5 | 0.00 | 0.00 | 0.00 | 68 | 1011.3 |
| 20260506061316 | 9 | 23 | 8.0 | 12.9 | 0.00 | 0.00 | 0.00 | 69 | 1011.4 |
| 20260506060337 | 9 | 45 | 11.3 | 16.1 | 0.00 | 0.00 | 0.00 | 69 | 1011.0 |
| 20260506051316 | 9 | 45 | 9.7 | 14.5 | 0.00 | 0.00 | 0.00 | 78 | 1011.5 |
| 20260506050316 | 9 | 45 | 6.4 | 8.0 | 0.00 | 0.00 | 0.00 | 78 | 1011.6 |
| 20260506044316 | 9 | 45 | 11.3 | 16.1 | 0.00 | 0.00 | 0.00 | 78 | 1012.1 |
| 20260506043316 | 9 | 45 | 9.7 | 17.7 | 0.00 | 0.00 | 0.00 | 79 | 1011.9 |
| 20260506042336 | 9 | 0 | 9.7 | 17.7 | 0.00 | 0.00 | 0.00 | 80 | 1012.1 |
| 20260506041315 | 9 | 23 | 11.3 | 19.3 | 0.00 | 0.00 | 0.00 | 81 | 1011.9 |
| 20260506040316 | 9 | 23 | 8.0 | 16.1 | 0.00 | 0.00 | 0.00 | 82 | 1011.8 |
| 20260506035315 | 9 | 23 | 8.0 | 12.9 | 0.00 | 0.00 | 0.00 | 82 | 1011.8 |
| 20260506034315 | 9 | 23 | 8.0 | 16.1 | 0.00 | 0.00 | 0.00 | 83 | 1011.7 |
| 20260506033315 | 9 | 23 | 8.0 | 12.9 | 0.00 | 0.00 | 0.00 | 83 | 1011.6 |
| 20260506032315 | 9 | 45 | 8.0 | 12.9 | 0.00 | 0.00 | 0.00 | 82 | 1011.3 |
| 20260506031315 | 9 | 45 | 14.5 | 19.3 | 0.00 | 0.00 | 0.00 | 82 | 1010.9 |
| 20260506030315 | 9 | 23 | 9.7 | 22.5 | 0.00 | 0.00 | 0.00 | 82 | 1010.9 |
| 20260506025335 | 9 | 0 | 14.5 | 20.9 | 0.00 | 0.00 | 0.00 | 82 | 1010.8 |
| 20260506024315 | 9 | 0 | 12.9 | 17.7 | 0.00 | 0.00 | 0.00 | 82 | 1010.4 |
| 20260506023315 | 9 | 23 | 16.1 | 24.1 | 0.00 | 0.00 | 0.00 | 82 | 1010.1 |
| 20260506022315 | 9 | 0 | 14.5 | 20.9 | 0.00 | 0.00 | 0.00 | 82 | 1010.2 |
| 20260506021315 | 9 | 23 | 9.7 | 16.1 | 0.00 | 0.00 | 0.00 | 81 | 1010.1 |
| 20260506020315 | 10 | 23 | 14.5 | 20.9 | 0.00 | 0.00 | 0.00 | 80 | 1009.9 |
| 20260506015316 | 10 | 0 | 9.7 | 14.5 | 0.00 | 0.00 | 0.00 | 80 | 1009.6 |
| 20260506014317 | 10 | 23 | 8.0 | 12.9 | 0.00 | 0.00 | 0.00 | 79 | 1009.6 |
| 20260506013317 | 10 | 0 | 16.1 | 24.1 | 0.00 | 0.00 | 0.00 | 78 | 1009.8 |
| 20260506012317 | 10 | 0 | 19.3 | 22.5 | 0.00 | 0.00 | 0.00 | 77 | 1009.4 |
| 20260506011317 | 10 | 23 | 11.3 | 17.7 | 0.00 | 0.00 | 0.00 | 76 | 1009.3 |
| 20260506010337 | 10 | 23 | 14.5 | 19.3 | 0.00 | 0.00 | 0.00 | 76 | 1009.2 |
| 20260506005315 | 10 | 23 | 6.4 | 12.9 | 0.00 | 0.00 | 0.00 | 75 | 1009.1 |
| 20260506004317 | 10 | 45 | 11.3 | 16.1 | 0.00 | 0.00 | 0.00 | 75 | 1008.4 |
| 20260506003317 | 11 | 45 | 11.3 | 17.7 | 0.00 | 0.00 | 0.00 | 76 | 1008.2 |
| 20260506002317 | 11 | 45 | 9.7 | 16.1 | 0.00 | 0.00 | 0.00 | 76 | 1008.3 |
| 20260506001317 | 11 | 23 | 8.0 | 14.5 | 0.00 | 0.00 | 0.00 | 76 | 1008.1 |
| 20260506000317 | 11 | 23 | 16.1 | 29.0 | 0.00 | 0.00 | 0.00 | 76 | 1008.1 |
| 20260505235318 | 11 | 23 | 12.9 | 17.7 | 0.00 | 0.00 | 0.00 | 76 | 1008.3 |
| 20260505234317 | 11 | 23 | 11.3 | 17.7 | 0.00 | 0.00 | 0.00 | 76 | 1007.9 |
| 20260505233317 | 11 | 23 | 12.9 | 22.5 | 0.00 | 0.00 | 0.00 | 76 | 1008.2 |
| 20260505232317 | 11 | 0 | 16.1 | 22.5 | 0.00 | 0.00 | 0.00 | 76 | 1007.9 |
| 20260505231337 | 11 | 23 | 17.7 | 20.9 | 0.00 | 0.00 | 0.00 | 76 | 1008.2 |
| 20260505230317 | 11 | 0 | 17.7 | 22.5 | 0.00 | 0.00 | 0.00 | 76 | 1007.9 |
| 20260505225317 | 11 | 23 | 11.3 | 17.7 | 0.00 | 0.00 | 0.00 | 76 | 1008.0 |
| 20260505224317 | 11 | 0 | 20.9 | 27.4 | 0.00 | 0.00 | 0.00 | 76 | 1007.8 |
| 20260505223337 | 11 | 23 | 12.9 | 19.3 | 0.00 | 0.00 | 0.00 | 77 | 1007.7 |
| 20260505222317 | 11 | 23 | 14.5 | 17.7 | 0.00 | 0.00 | 0.00 | 77 | 1007.8 |
| 20260505221337 | 11 | 0 | 12.9 | 16.1 | 0.00 | 0.00 | 0.00 | 77 | 1007.7 |
| 20260505220317 | 12 | 23 | 11.3 | 16.1 | 0.00 | 0.00 | 0.00 | 77 | 1007.3 |
| 20260505215317 | 12 | 23 | 11.3 | 17.7 | 0.00 | 0.00 | 0.00 | 77 | 1006.9 |
| 20260505214317 | 12 | 0 | 17.7 | 24.1 | 0.00 | 0.00 | 0.00 | 78 | 1007.0 |
| 20260505213316 | 12 | 0 | 19.3 | 22.5 | 0.00 | 0.00 | 0.00 | 78 | 1007.0 |
| 20260505212317 | 12 | 23 | 11.3 | 19.3 | 0.00 | 0.00 | 0.00 | 80 | 1007.2 |
| 20260505211317 | 12 | 0 | 17.7 | 25.7 | 0.00 | 0.00 | 0.00 | 79 | 1006.5 |
| 20260505210316 | 12 | 23 | 16.1 | 22.5 | 0.00 | 0.00 | 0.00 | 80 | 1006.5 |
| 20260505205316 | 12 | 0 | 19.3 | 25.7 | 0.00 | 0.00 | 0.00 | 80 | 1006.6 |
| 20260505204317 | 12 | 0 | 12.9 | 19.3 | 0.00 | 0.00 | 0.00 | 81 | 1006.2 |
| 20260505203316 | 12 | 23 | 14.5 | 19.3 | 0.00 | 0.00 | 0.00 | 82 | 1006.3 |
| 20260505202316 | 12 | 338 | 17.7 | 22.5 | 0.00 | 0.00 | 0.00 | 81 | 1006.4 |
| 20260505201336 | 12 | 0 | 17.7 | 32.2 | 0.00 | 0.00 | 0.00 | 81 | 1006.3 |
| 20260505200316 | 13 | 0 | 17.7 | 24.1 | 0.00 | 0.00 | 0.00 | 81 | 1006.2 |
| 20260505195316 | 13 | 45 | 6.4 | 16.1 | 0.00 | 0.00 | 0.00 | 81 | 1006.2 |
| 20260505194356 | 13 | 23 | 12.9 | 22.5 | 0.00 | 0.00 | 0.00 | 80 | 1005.9 |
| 20260505193317 | 13 | 0 | 19.3 | 30.6 | 0.00 | 0.00 | 0.00 | 81 | 1005.7 |
| 20260505192316 | 13 | 23 | 16.1 | 22.5 | 0.00 | 0.00 | 0.00 | 81 | 1006.3 |
| 20260505191316 | 13 | 0 | 17.7 | 24.1 | 0.00 | 0.00 | 0.00 | 82 | 1005.9 |
| 20260505190337 | 13 | 23 | 16.1 | 25.7 | 0.00 | 0.00 | 0.00 | 81 | 1005.0 |
| 20260505185316 | 13 | 0 | 9.7 | 12.9 | 0.00 | 0.00 | 0.00 | 81 | 1005.7 |
| 20260505184317 | 13 | 23 | 16.1 | 25.7 | 0.00 | 0.00 | 0.00 | 81 | 1005.7 |
| 20260505183336 | 13 | 0 | 20.9 | 27.4 | 0.00 | 0.00 | 0.00 | 81 | 1005.4 |
| 20260505182316 | 13 | 0 | 19.3 | 22.5 | 0.00 | 0.00 | 0.00 | 81 | 1005.2 |
| 20260505181316 | 14 | 0 | 20.9 | 29.0 | 0.00 | 0.00 | 0.00 | 82 | 1005.0 |
| 20260505180316 | 14 | 23 | 16.1 | 22.5 | 0.00 | 0.00 | 0.00 | 82 | 1004.6 |
| 20260505175316 | 14 | 0 | 22.5 | 30.6 | 0.00 | 0.00 | 0.00 | 82 | 1004.3 |
| 20260505174337 | 15 | 0 | 19.3 | 27.4 | 0.00 | 0.00 | 0.00 | 81 | 1004.4 |
| 20260505173336 | 15 | 0 | 20.9 | 27.4 | 0.00 | 0.00 | 0.00 | 81 | 1004.6 |
| 20260505172316 | 16 | 338 | 24.1 | 33.8 | 0.00 | 0.00 | 0.00 | 79 | 1004.4 |
| 20260505171317 | 16 | 0 | 25.7 | 35.4 | 0.00 | 0.00 | 0.00 | 79 | 1004.0 |
| 20260505170316 | 17 | 0 | 17.7 | 25.7 | 0.00 | 0.00 | 0.00 | 79 | 1003.4 |
| 20260505165356 | 19 | 338 | 24.1 | 33.8 | 0.00 | 0.00 | 0.00 | 77 | 1003.2 |
| 20260505164316 | 20 | 338 | 19.3 | 29.0 | 0.00 | 0.00 | 0.00 | 75 | 1002.8 |
| 20260505163316 | 24 | 315 | 9.7 | 12.9 | 0.00 | 0.00 | 0.00 | 70 | 1002.8 |
| 20260505162356 | 23 | 45 | 4.8 | 4.8 | 0.00 | 0.00 | 0.00 | 71 | 1002.6 |
| 20260505161336 | 23 | 23 | 4.8 | 11.3 | 0.00 | 0.00 | 0.00 | 73 | 1002.4 |
| 20260505160315 | 23 | 0.0 | 1.6 | 0.00 | 0.00 | 0.00 | 73 | 1002.3 | |
| 20260505153315 | 23 | 113 | 1.6 | 4.8 | 0.00 | 0.00 | 0.00 | 73 | 1001.8 |
| 20260505152316 | 22 | 0 | 4.8 | 6.4 | 0.00 | 0.00 | 0.00 | 74 | 1001.5 |
| 20260505151315 | 22 | 0.0 | 0.0 | 0.00 | 0.00 | 0.00 | 73 | 1001.6 | |
| 20260505150316 | 22 | 293 | 1.6 | 3.2 | 0.00 | 0.00 | 0.00 | 74 | 1001.8 |
| 20260505140315 | 22 | 315 | 1.6 | 3.2 | 0.00 | 0.00 | 0.00 | 76 | 1000.9 |
| 20260505124317 | 20 | 203 | 6.4 | 11.3 | 0.00 | 0.00 | 0.00 | 80 | 1000.6 |
| 20260505123317 | 20 | 180 | 8.0 | 12.9 | 0.00 | 0.00 | 0.00 | 80 | 1000.2 |
| 20260505122337 | 20 | 225 | 3.2 | 8.0 | 0.00 | 0.00 | 0.00 | 80 | 1000.1 |
| 20260505121317 | 20 | 180 | 4.8 | 11.3 | 0.00 | 0.00 | 0.00 | 80 | 999.8 |
| 20260505120317 | 20 | 203 | 19.3 | 24.1 | 0.00 | 0.00 | 0.00 | 80 | 999.6 |
| 20260505115317 | 20 | 180 | 11.3 | 19.3 | 0.00 | 0.00 | 0.00 | 80 | 999.4 |
| 20260505114317 | 20 | 203 | 16.1 | 27.4 | 0.00 | 0.00 | 0.00 | 79 | 999.3 |
| 20260505113317 | 21 | 180 | 14.5 | 19.3 | 0.00 | 0.00 | 0.00 | 79 | 999.3 |
| 20260505112337 | 21 | 180 | 11.3 | 16.1 | 0.00 | 0.00 | 0.00 | 78 | 999.2 |
| 20260505111317 | 21 | 180 | 9.7 | 16.1 | 0.00 | 0.00 | 0.00 | 78 | 999.3 |
| 20260505110317 | 21 | 203 | 11.3 | 16.1 | 0.00 | 0.00 | 0.00 | 78 | 999.3 |
| 20260505101317 | 21 | 180 | 9.7 | 12.9 | 0.00 | 0.00 | 0.00 | 76 | 999.2 |
| 20260505100317 | 21 | 180 | 12.9 | 17.7 | 0.00 | 0.00 | 0.00 | 76 | 999.3 |
| 20260505095317 | 21 | 180 | 14.5 | 20.9 | 0.00 | 0.00 | 0.00 | 76 | 999.3 |
| 20260505094317 | 21 | 180 | 11.3 | 16.1 | 0.00 | 0.00 | 0.00 | 76 | 999.3 |
| 20260505093317 | 21 | 180 | 16.1 | 24.1 | 0.00 | 0.00 | 0.00 | 76 | 999.4 |
| 20260505092317 | 21 | 180 | 11.3 | 17.7 | 0.00 | 0.00 | 0.00 | 76 | 999.4 |
| 20260505091317 | 21 | 203 | 12.9 | 16.1 | 0.00 | 0.00 | 0.00 | 76 | 999.4 |
| 20260505090317 | 21 | 180 | 14.5 | 20.9 | 0.00 | 0.00 | 0.00 | 75 | 999.6 |
| 20260505085317 | 21 | 180 | 14.5 | 25.7 | 0.00 | 0.00 | 0.00 | 75 | 999.6 |
| 20260505084317 | 21 | 180 | 12.9 | 17.7 | 0.00 | 0.00 | 0.00 | 76 | 999.5 |
| 20260505083316 | 21 | 180 | 14.5 | 19.3 | 0.00 | 0.00 | 0.00 | 76 | 999.6 |
| 20260505082356 | 21 | 180 | 16.1 | 24.1 | 0.00 | 0.00 | 0.00 | 76 | 999.8 |
| 20260505081316 | 21 | 180 | 14.5 | 19.3 | 0.00 | 0.00 | 0.00 | 76 | 999.9 |
| 20260505080317 | 21 | 180 | 12.9 | 19.3 | 0.00 | 0.00 | 0.00 | 75 | 1000.0 |
| 20260505075316 | 21 | 180 | 14.5 | 22.5 | 0.00 | 0.00 | 0.00 | 75 | 1000.0 |
| 20260505074316 | 21 | 180 | 19.3 | 29.0 | 0.00 | 0.00 | 0.00 | 76 | 1000.0 |
| 20260505073317 | 21 | 180 | 14.5 | 22.5 | 0.00 | 0.00 | 0.00 | 76 | 1000.2 |
| 20260505072316 | 21 | 180 | 14.5 | 19.3 | 0.00 | 0.00 | 0.00 | 76 | 1000.4 |
| 20260505071336 | 21 | 180 | 16.1 | 20.9 | 0.00 | 0.00 | 0.00 | 76 | 1000.3 |